AEL86U EPWA-UKLI

Flight info

Callsign AEL86U
Flight time 0h 45m
Altitude 35000
Route XIMBA N195 VELAX/N0360F130 N195 DIBED/K0665F130 N195 KOKUP
Aircraft A343/H-SDE2E3FGHIJ4J5M1RWXY/LB1D1

Departure

Time 2026-04-30 09:20
Airport Warsaw Chopin Airport (EPWA)

Arrival

Time 2026-04-30 10:05
Airport Ivano-Frankivsk International Airport (UKLI)
Time Latitude Longitude Altitude Speed Heading
2026-04-30 08:53 52.16755 20.97350 356 ft 0 kts 60°
2026-04-30 09:09 52.16746 20.97326 356 ft 3 kts 60°
2026-04-30 09:09 52.16737 20.97299 365 ft 3 kts 60°
2026-04-30 09:09 52.16728 20.97272 356 ft 3 kts 62°
2026-04-30 09:09 52.16722 20.97241 361 ft 3 kts 107°
2026-04-30 09:10 52.16725 20.97228 356 ft 0 kts 112°
2026-04-30 09:13 52.16723 20.97234 356 ft 2 kts 112°
2026-04-30 09:14 52.16716 20.97251 364 ft 1 kts 134°
2026-04-30 09:14 52.16712 20.97251 363 ft 0 kts 159°
2026-04-30 09:14 52.16706 20.97254 356 ft 2 kts 162°
2026-04-30 09:14 52.16687 20.97264 362 ft 4 kts 162°
2026-04-30 09:15 52.16655 20.97280 363 ft 6 kts 161°
2026-04-30 09:15 52.16611 20.97309 363 ft 8 kts 156°
2026-04-30 09:15 52.16573 20.97377 359 ft 9 kts 119°
2026-04-30 09:15 52.16544 20.97476 364 ft 10 kts 114°
2026-04-30 09:16 52.16512 20.97592 365 ft 12 kts 114°
2026-04-30 09:16 52.16476 20.97722 358 ft 13 kts 114°
2026-04-30 09:16 52.16437 20.97866 362 ft 15 kts 114°
2026-04-30 09:16 52.16395 20.98021 363 ft 16 kts 114°
2026-04-30 09:17 52.16348 20.98192 357 ft 17 kts 114°
2026-04-30 09:17 52.16296 20.98373 363 ft 18 kts 116°
2026-04-30 09:17 52.16239 20.98470 364 ft 6 kts 184°
2026-04-30 09:17 52.16219 20.98460 356 ft 0 kts 198°
2026-04-30 09:18 52.16210 20.98455 356 ft 3 kts 199°
2026-04-30 09:18 52.16184 20.98438 357 ft 5 kts 205°
2026-04-30 09:19 52.16144 20.98393 361 ft 9 kts 224°
2026-04-30 09:19 52.16128 20.98297 362 ft 9 kts 277°
2026-04-30 09:19 52.16153 20.98197 364 ft 12 kts 295°
2026-04-30 09:19 52.16275 20.97777 359 ft 74 kts 294°
2026-04-30 09:20 52.16575 20.96702 365 ft 131 kts 294°
2026-04-30 09:20 52.16999 20.95146 625 ft 160 kts 294°
2026-04-30 09:20 52.17455 20.93443 1302 ft 168 kts 296°
2026-04-30 09:20 52.17891 20.91587 1815 ft 188 kts 283°
2026-04-30 09:21 52.17854 20.89341 2341 ft 215 kts 264°
2026-04-30 09:21 52.17568 20.86794 2965 ft 238 kts 261°
2026-04-30 09:21 52.17229 20.84097 3908 ft 247 kts 261°
2026-04-30 09:21 52.16889 20.81297 4833 ft 256 kts 262°
2026-04-30 09:22 52.16547 20.78404 5800 ft 264 kts 262°
2026-04-30 09:22 52.16204 20.75425 6758 ft 271 kts 263°
2026-04-30 09:22 52.15745 20.72410 7648 ft 280 kts 252°
2026-04-30 09:22 52.14661 20.69729 8539 ft 290 kts 226°
2026-04-30 09:23 52.13073 20.67565 9471 ft 297 kts 219°
2026-04-30 09:23 52.11431 20.65533 10321 ft 304 kts 219°
2026-04-30 09:23 52.09702 20.63392 10950 ft 317 kts 219°
2026-04-30 09:23 52.07914 20.61157 11281 ft 338 kts 219°
2026-04-30 09:24 52.05974 20.58720 11619 ft 358 kts 219°
2026-04-30 09:24 52.03977 20.56210 11970 ft 376 kts 219°
2026-04-30 09:24 52.01853 20.53539 12564 ft 386 kts 219°
2026-04-30 09:24 51.99726 20.50908 13256 ft 393 kts 216°
2026-04-30 09:25 51.97314 20.48776 13992 ft 399 kts 200°
2026-04-30 09:25 51.94589 20.47873 14687 ft 403 kts 179°
2026-04-30 09:25 51.91834 20.48540 15256 ft 400 kts 158°
2026-04-30 09:25 51.89359 20.50564 15859 ft 399 kts 142°
2026-04-30 09:26 51.87140 20.53265 16548 ft 400 kts 135°
2026-04-30 09:26 51.85049 20.56246 17238 ft 402 kts 132°
2026-04-30 09:26 51.82982 20.59320 17921 ft 406 kts 132°
2026-04-30 09:26 51.80882 20.62403 18619 ft 411 kts 132°
2026-04-30 09:27 51.78723 20.65475 19225 ft 416 kts 133°
2026-04-30 09:27 51.76513 20.68525 19807 ft 420 kts 134°
2026-04-30 09:27 51.74261 20.71564 20410 ft 424 kts 134°
2026-04-30 09:27 51.71977 20.74607 20995 ft 428 kts 134°
2026-04-30 09:28 51.69673 20.77659 21592 ft 431 kts 134°
2026-04-30 09:28 51.67342 20.80739 22177 ft 434 kts 134°
2026-04-30 09:28 51.64998 20.83835 22723 ft 438 kts 134°
2026-04-30 09:28 51.62633 20.86960 23261 ft 441 kts 134°
2026-04-30 09:29 51.60251 20.90106 23801 ft 445 kts 134°
2026-04-30 09:29 51.57856 20.93267 24280 ft 448 kts 134°
2026-04-30 09:29 51.55436 20.96456 24709 ft 451 kts 134°
2026-04-30 09:29 51.53004 20.99658 25127 ft 454 kts 134°
2026-04-30 09:30 51.50554 21.02880 25544 ft 457 kts 134°
2026-04-30 09:30 51.48082 21.06125 25955 ft 460 kts 134°
2026-04-30 09:30 51.45601 21.09377 26398 ft 463 kts 134°
2026-04-30 09:30 51.43102 21.12648 26825 ft 465 kts 134°
2026-04-30 09:31 51.40590 21.15932 27215 ft 468 kts 134°
2026-04-30 09:31 51.38060 21.19233 27593 ft 470 kts 134°
2026-04-30 09:31 51.35513 21.22551 27966 ft 473 kts 134°
2026-04-30 09:31 51.32958 21.25876 28332 ft 476 kts 134°
2026-04-30 09:32 51.30383 21.29221 28666 ft 478 kts 134°
2026-04-30 09:32 51.27792 21.32583 29038 ft 480 kts 135°
2026-04-30 09:32 51.25192 21.35950 29409 ft 482 kts 135°
2026-04-30 09:32 51.22586 21.39320 29750 ft 484 kts 135°
2026-04-30 09:33 51.19962 21.42709 30105 ft 487 kts 135°
2026-04-30 09:33 51.17324 21.46111 30433 ft 489 kts 135°
2026-04-30 09:33 51.14676 21.49519 30776 ft 489 kts 135°
2026-04-30 09:33 51.12030 21.52917 31145 ft 489 kts 135°
2026-04-30 09:34 51.09380 21.56317 31505 ft 488 kts 135°
2026-04-30 09:34 51.06737 21.59702 31841 ft 488 kts 135°
2026-04-30 09:34 51.04088 21.63091 32189 ft 488 kts 135°
2026-04-30 09:34 51.01440 21.66474 32534 ft 488 kts 135°
2026-04-30 09:35 50.98798 21.69845 32862 ft 488 kts 135°
2026-04-30 09:35 50.96145 21.73226 33234 ft 488 kts 136°
2026-04-30 09:35 50.93497 21.76596 33536 ft 488 kts 136°
2026-04-30 09:35 50.90848 21.79960 33870 ft 488 kts 136°
2026-04-30 09:36 50.88198 21.83320 34184 ft 488 kts 136°
2026-04-30 09:36 50.85546 21.86679 34488 ft 488 kts 136°
2026-04-30 09:36 50.82893 21.90034 34735 ft 488 kts 137°
2026-04-30 09:36 50.80243 21.93379 34966 ft 489 kts 137°
2026-04-30 09:37 50.77584 21.96732 35198 ft 489 kts 137°
2026-04-30 09:37 50.74921 22.00083 35390 ft 490 kts 137°
2026-04-30 09:37 50.69563 22.06815 35435 ft 491 kts 137°
2026-04-30 09:38 50.64230 22.13489 35433 ft 490 kts 137°
2026-04-30 09:38 50.58889 22.20157 35430 ft 490 kts 137°
2026-04-30 09:39 50.53544 22.26810 35430 ft 490 kts 138°
2026-04-30 09:39 50.48197 22.33446 35450 ft 490 kts 138°
2026-04-30 09:40 50.42840 22.40076 35432 ft 491 kts 138°
2026-04-30 09:40 50.37471 22.46700 35434 ft 491 kts 138°
2026-04-30 09:41 50.33012 22.52184 35348 ft 486 kts 138°
2026-04-30 09:41 50.30385 22.55404 35290 ft 473 kts 138°
2026-04-30 09:41 50.27796 22.58573 34659 ft 475 kts 138°
2026-04-30 09:42 50.25174 22.61791 33653 ft 483 kts 138°
2026-04-30 09:42 50.22513 22.65053 32752 ft 489 kts 137°
2026-04-30 09:42 50.19828 22.68336 31895 ft 492 kts 137°
2026-04-30 09:42 50.17123 22.71636 31079 ft 494 kts 137°
2026-04-30 09:43 50.14415 22.74932 30231 ft 495 kts 137°
2026-04-30 09:43 50.11694 22.78237 29333 ft 495 kts 137°
2026-04-30 09:43 50.08987 22.81518 28473 ft 488 kts 137°
2026-04-30 09:43 50.06362 22.84683 27765 ft 465 kts 137°
2026-04-30 09:44 50.03845 22.87709 27133 ft 451 kts 137°
2026-04-30 09:44 50.01373 22.90694 26510 ft 450 kts 137°
2026-04-30 09:44 49.98909 22.93676 25878 ft 449 kts 137°
2026-04-30 09:44 49.96447 22.96656 25243 ft 448 kts 137°
2026-04-30 09:45 49.93984 22.99629 24599 ft 447 kts 137°
2026-04-30 09:45 49.91534 23.02581 24002 ft 446 kts 137°
2026-04-30 09:45 49.89161 23.05624 23399 ft 438 kts 131°
2026-04-30 09:45 49.87015 23.08917 22882 ft 431 kts 129°
2026-04-30 09:46 49.84950 23.12243 22329 ft 426 kts 128°
2026-04-30 09:46 49.82934 23.15582 21776 ft 422 kts 128°
2026-04-30 09:46 49.80955 23.18903 21225 ft 418 kts 128°
2026-04-30 09:46 49.78993 23.22205 20703 ft 415 kts 128°
2026-04-30 09:47 49.77048 23.25474 20149 ft 412 kts 128°
2026-04-30 09:47 49.75108 23.28721 19598 ft 410 kts 128°
2026-04-30 09:47 49.73175 23.31944 19058 ft 407 kts 129°
2026-04-30 09:47 49.71251 23.35141 18492 ft 405 kts 129°
2026-04-30 09:48 49.69336 23.38315 17933 ft 401 kts 129°
2026-04-30 09:48 49.67442 23.41446 17400 ft 397 kts 129°
2026-04-30 09:48 49.65563 23.44548 16869 ft 394 kts 129°
2026-04-30 09:48 49.63699 23.47623 16339 ft 390 kts 129°
2026-04-30 09:49 49.61848 23.50675 15792 ft 388 kts 129°
2026-04-30 09:49 49.60013 23.53697 15265 ft 385 kts 129°
2026-04-30 09:49 49.58184 23.56705 14724 ft 383 kts 130°
2026-04-30 09:49 49.56364 23.59697 14140 ft 382 kts 130°
2026-04-30 09:50 49.54551 23.62673 13555 ft 380 kts 130°
2026-04-30 09:50 49.52753 23.65619 12978 ft 377 kts 130°
2026-04-30 09:50 49.50912 23.68484 12434 ft 375 kts 134°
2026-04-30 09:50 49.49004 23.71206 11861 ft 373 kts 135°
2026-04-30 09:51 49.47103 23.73908 11287 ft 371 kts 134°
2026-04-30 09:51 49.45250 23.76560 11117 ft 354 kts 134°
2026-04-30 09:51 49.43516 23.79045 10856 ft 326 kts 134°
2026-04-30 09:51 49.41934 23.81319 10635 ft 298 kts 134°
2026-04-30 09:52 49.40482 23.83411 10426 ft 276 kts 134°
2026-04-30 09:52 49.39106 23.85400 10286 ft 270 kts 134°
2026-04-30 09:52 49.37739 23.87381 10117 ft 270 kts 134°
2026-04-30 09:52 49.36305 23.89368 9992 ft 285 kts 137°
2026-04-30 09:53 49.34777 23.91348 9708 ft 286 kts 137°
2026-04-30 09:53 49.33276 23.93271 9443 ft 275 kts 138°
2026-04-30 09:53 49.31851 23.95087 9187 ft 258 kts 137°
2026-04-30 09:53 49.30490 23.96818 8921 ft 252 kts 138°
2026-04-30 09:54 49.29145 23.98528 8658 ft 251 kts 138°
2026-04-30 09:54 49.27808 24.00236 8395 ft 250 kts 138°
2026-04-30 09:54 49.26471 24.01954 8129 ft 251 kts 137°
2026-04-30 09:54 49.25134 24.03672 7864 ft 251 kts 137°
2026-04-30 09:55 49.23795 24.05381 7653 ft 250 kts 138°
2026-04-30 09:55 49.22472 24.07088 7420 ft 248 kts 137°
2026-04-30 09:55 49.21148 24.08777 7208 ft 247 kts 137°
2026-04-30 09:55 49.19820 24.10451 6961 ft 247 kts 137°
2026-04-30 09:56 49.18501 24.12117 6737 ft 246 kts 138°
2026-04-30 09:56 49.17190 24.13794 6500 ft 245 kts 137°
2026-04-30 09:56 49.15886 24.15463 6244 ft 244 kts 138°
2026-04-30 09:56 49.14600 24.17135 6007 ft 242 kts 138°
2026-04-30 09:57 49.13323 24.18790 5777 ft 240 kts 138°
2026-04-30 09:57 49.12047 24.20426 5538 ft 240 kts 138°
2026-04-30 09:57 49.10770 24.22059 5349 ft 237 kts 139°
2026-04-30 09:57 49.09502 24.23667 5078 ft 238 kts 139°
2026-04-30 09:58 49.08220 24.25292 4782 ft 240 kts 138°
2026-04-30 09:58 49.06947 24.26908 4667 ft 238 kts 138°
2026-04-30 09:58 49.05672 24.28520 4663 ft 237 kts 138°
2026-04-30 09:58 49.04407 24.30112 4444 ft 235 kts 139°
2026-04-30 09:59 49.01877 24.33284 3904 ft 235 kts 139°
2026-04-30 09:59 48.99361 24.36429 3359 ft 234 kts 139°
2026-04-30 10:00 48.96836 24.39576 2911 ft 237 kts 139°
2026-04-30 10:00 48.95517 24.41218 2884 ft 245 kts 139°
2026-04-30 10:01 48.92996 24.44321 2874 ft 224 kts 140°
2026-04-30 10:01 48.91869 24.45875 2801 ft 213 kts 127°
2026-04-30 10:01 48.91273 24.47783 2838 ft 190 kts 98°
2026-04-30 10:02 48.90893 24.51525 2407 ft 168 kts 95°
2026-04-30 10:02 48.90753 24.53206 2185 ft 153 kts 91°
2026-04-30 10:02 48.90567 24.54741 1901 ft 143 kts 98°
2026-04-30 10:02 48.90366 24.56193 1706 ft 139 kts 103°
2026-04-30 10:03 48.90129 24.57626 1515 ft 141 kts 101°
2026-04-30 10:03 48.89878 24.59067 1385 ft 141 kts 101°
2026-04-30 10:03 48.89649 24.60521 1352 ft 142 kts 98°
2026-04-30 10:03 48.89424 24.61982 1298 ft 142 kts 99°
2026-04-30 10:04 48.89209 24.63441 1205 ft 141 kts 99°
2026-04-30 10:04 48.88975 24.64886 1090 ft 141 kts 101°
2026-04-30 10:04 48.88735 24.66331 1004 ft 140 kts 101°
2026-04-30 10:04 48.88510 24.67711 932 ft 116 kts 103°
2026-04-30 10:05 48.88341 24.68736 926 ft 87 kts 104°
2026-04-30 10:05 48.88216 24.69500 925 ft 60 kts 103°
2026-04-30 10:05 48.88141 24.69947 924 ft 30 kts 103°
2026-04-30 10:05 48.88168 24.70114 919 ft 11 kts 35°
2026-04-30 10:06 48.88236 24.70186 919 ft 13 kts 34°
2026-04-30 10:06 48.88314 24.70264 918 ft 14 kts 32°
2026-04-30 10:06 48.88400 24.70347 918 ft 15 kts 26°
2026-04-30 10:06 48.88503 24.70335 918 ft 15 kts 343°
2026-04-30 10:07 48.88602 24.70285 919 ft 15 kts 341°
2026-04-30 10:07 48.88692 24.70309 919 ft 13 kts 51°
2026-04-30 10:07 48.88711 24.70443 918 ft 14 kts 82°
2026-04-30 10:07 48.88741 24.70545 918 ft 6 kts 29°
2026-04-30 10:08 48.88760 24.70550 918 ft 0 kts